• In Spain
  • List of Countries
  • For 7 days
  • Water Temperature
  • Satellite Maps
  • Weather Map
  • Weather Widgets
  • user-avatar
    Login

    Hourly Weather Ivanovo-Treschevo

    Today, 19 April, Thursday

    Time Temperature Precipitation Wind Pressure Humidity
    00:00 +5°C° 0.2 mm 5 mps 735 mmHg 85%
    01:00 +5°C° 0.2 mm 5 mps 735 mmHg 86%
    02:00 +4°C° 0 mm 6 mps 734 mmHg 88%
    03:00 +4°C° 0.7 mm 6 mps 733 mmHg 88%
    04:00 +4°C° 0.7 mm 6 mps 733 mmHg 89%
    05:00 +4°C° 0.7 mm 6 mps 732 mmHg 90%
    06:00 +4°C° 0.4 mm 6 mps 732 mmHg 89%
    07:00 +4°C° 0.4 mm 6 mps 732 mmHg 88%
    08:00 +5°C° 0.4 mm 7 mps 731 mmHg 87%
    09:00 +5°C° 0.4 mm 7 mps 731 mmHg 86%
    10:00 +6°C° 0.4 mm 7 mps 731 mmHg 86%
    11:00 +6°C° 0.4 mm 7 mps 731 mmHg 85%
    12:00 +8°C° 0.4 mm 7 mps 731 mmHg 81%
    13:00 +8°C° 0.4 mm 7 mps 731 mmHg 76%
    14:00 +9°C° 0.4 mm 7 mps 731 mmHg 72%
    15:00 +9°C° 0.3 mm 7 mps 731 mmHg 72%
    16:00 +9°C° 0.3 mm 7 mps 731 mmHg 72%
    17:00 +9°C° 0.3 mm 7 mps 732 mmHg 72%
    18:00 +8°C° 0.1 mm 7 mps 732 mmHg 75%
    19:00 +8°C° 0.1 mm 6 mps 732 mmHg 78%
    20:00 +7°C° 0.1 mm 6 mps 733 mmHg 80%
    21:00 +6°C° 0.1 mm 7 mps 733 mmHg 81%
    22:00 +6°C° 0.1 mm 7 mps 734 mmHg 81%
    23:00 +6°C° 0.1 mm 8 mps 734 mmHg 81%

    Tomorrow, 20 April, Friday

    Time Temperature Precipitation Wind Pressure Humidity
    00:00 +6°C° 0.1 mm 8 mps 735 mmHg 81%
    01:00 +5°C° 0.1 mm 8 mps 735 mmHg 82%
    02:00 +5°C° 0.1 mm 8 mps 735 mmHg 82%
    03:00 +4°C° 0 mm 8 mps 736 mmHg 82%
    04:00 +4°C° 0 mm 8 mps 736 mmHg 83%
    05:00 +2°C° 0 mm 8 mps 737 mmHg 83%
    06:00 +4°C° 0 mm 8 mps 737 mmHg 80%
    07:00 +4°C° 0 mm 8 mps 738 mmHg 76%
    08:00 +5°C° 0 mm 8 mps 739 mmHg 73%
    09:00 +5°C° 0 mm 8 mps 739 mmHg 70%
    10:00 +6°C° 0 mm 8 mps 739 mmHg 68%
    11:00 +7°C° 0 mm 8 mps 740 mmHg 65%
    12:00 +7°C° 0 mm 8 mps 740 mmHg 62%
    13:00 +9°C° 0 mm 7 mps 740 mmHg 60%
    14:00 +10°C° 0 mm 7 mps 741 mmHg 57%
    15:00 +9°C° 0 mm 6 mps 741 mmHg 58%
    16:00 +9°C° 0 mm 5 mps 741 mmHg 59%
    17:00 +9°C° 0 mm 5 mps 741 mmHg 60%
    18:00 +8°C° 0 mm 4 mps 741 mmHg 64%
    19:00 +8°C° 0 mm 3 mps 742 mmHg 67%
    20:00 +8°C° 0 mm 3 mps 742 mmHg 71%
    21:00 +7°C° 0 mm 2 mps 742 mmHg 74%
    22:00 +6°C° 0 mm 2 mps 742 mmHg 77%
    23:00 +5°C° 0 mm 2 mps 742 mmHg 81%

    Day after tomorrow, 21 April, Saturday

    Time Temperature Precipitation Wind Pressure Humidity
    00:00 +5°C° 0 mm 2 mps 741 mmHg 82%
    01:00 +5°C° 0 mm 2 mps 741 mmHg 84%
    02:00 +4°C° 0 mm 2 mps 741 mmHg 85%
    03:00 +3°C° 0 mm 3 mps 740 mmHg 87%
    04:00 +3°C° 0 mm 3 mps 740 mmHg 88%
    05:00 +3°C° 0 mm 4 mps 739 mmHg 89%
    06:00 +5°C° 0 mm 5 mps 738 mmHg 83%
    07:00 +5°C° 0 mm 6 mps 737 mmHg 78%
    08:00 +6°C° 0 mm 7 mps 736 mmHg 72%
    09:00 +9°C° 0 mm 8 mps 735 mmHg 68%
    10:00 +11°C° 0 mm 9 mps 734 mmHg 63%
    11:00 +13°C° 0 mm 10 mps 733 mmHg 59%
    12:00 +14°C° 0 mm 10 mps 732 mmHg 57%
    13:00 +16°C° 0 mm 10 mps 731 mmHg 55%
    14:00 +17°C° 0 mm 10 mps 730 mmHg 53%
    15:00 +17°C° 0.2 mm 10 mps 729 mmHg 57%
    16:00 +16°C° 0.2 mm 9 mps 729 mmHg 61%
    17:00 +15°C° 0.2 mm 8 mps 728 mmHg 64%
    18:00 +13°C° 0.8 mm 8 mps 728 mmHg 68%
    19:00 +12°C° 0.8 mm 8 mps 728 mmHg 71%
    20:00 +10°C° 0.8 mm 8 mps 728 mmHg 74%
    21:00 +9°C° 0 mm 7 mps 728 mmHg 73%
    22:00 +6°C° 0 mm 7 mps 728 mmHg 73%
    23:00 +5°C° 0 mm 6 mps 728 mmHg 72%

    22 April, Sunday

    Time Temperature Precipitation Wind Pressure Humidity
    00:00 +5°C° 0 mm 6 mps 729 mmHg 74%
    01:00 +4°C° 0 mm 7 mps 729 mmHg 77%
    02:00 +4°C° 0 mm 7 mps 729 mmHg 79%
    03:00 +4°C° 0 mm 7 mps 729 mmHg 80%
    04:00 +3°C° 0 mm 7 mps 729 mmHg 80%
    05:00 +3°C° 0 mm 7 mps 730 mmHg 81%
    06:00 +2°C° 0 mm 8 mps 730 mmHg 77%
    07:00 +4°C° 0 mm 8 mps 730 mmHg 73%
    08:00 +4°C° 0 mm 8 mps 731 mmHg 69%
    09:00 +4°C° 0 mm 8 mps 731 mmHg 67%
    10:00 +5°C° 0 mm 8 mps 732 mmHg 64%
    11:00 +5°C° 0 mm 8 mps 732 mmHg 62%
    12:00 +6°C° 0 mm 8 mps 732 mmHg 59%
    13:00 +8°C° 0 mm 7 mps 732 mmHg 56%
    14:00 +9°C° 0 mm 7 mps 733 mmHg 53%
    15:00 +8°C° 0.1 mm 6 mps 733 mmHg 54%
    16:00 +8°C° 0.1 mm 6 mps 733 mmHg 55%
    17:00 +8°C° 0.1 mm 5 mps 733 mmHg 56%
    18:00 +7°C° 0.1 mm 4 mps 733 mmHg 61%
    19:00 +7°C° 0.1 mm 3 mps 734 mmHg 66%
    20:00 +6°C° 0.1 mm 2 mps 734 mmHg 72%
    21:00 +5°C° 0.1 mm 2 mps 734 mmHg 73%
    22:00 +5°C° 0.1 mm 2 mps 734 mmHg 74%
    23:00 +4°C° 0.1 mm 2 mps 735 mmHg 75%

    23 April, Monday

    Time Temperature Precipitation Wind Pressure Humidity
    00:00 +4°C° 0.4 mm 2 mps 735 mmHg 75%
    01:00 +2°C° 0.4 mm 3 mps 735 mmHg 76%
    02:00 +2°C° 0.4 mm 3 mps 735 mmHg 76%
    03:00 +1°C° 0 mm 3 mps 735 mmHg 76%
    04:00 +1°C° 0 mm 3 mps 736 mmHg 76%
    05:00 +1°C° 0 mm 3 mps 736 mmHg 76%
    06:00 +1°C° 0 mm 3 mps 737 mmHg 71%
    07:00 +2°C° 0 mm 3 mps 737 mmHg 65%
    08:00 +1°C° 0 mm 4 mps 737 mmHg 59%
    09:00 +3°C° 0 mm 3 mps 738 mmHg 54%
    10:00 +4°C° 0 mm 3 mps 738 mmHg 49%
    11:00 +5°C° 0 mm 3 mps 738 mmHg 45%
    12:00 +5°C° 0 mm 3 mps 738 mmHg 43%
    13:00 +7°C° 0 mm 3 mps 738 mmHg 42%
    14:00 +7°C° 0 mm 3 mps 738 mmHg 40%
    15:00 +7°C° 0 mm 3 mps 738 mmHg 41%
    16:00 +7°C° 0 mm 3 mps 738 mmHg 42%
    17:00 +7°C° 0 mm 3 mps 738 mmHg 42%
    18:00 +6°C° 0 mm 2 mps 739 mmHg 46%
    19:00 +6°C° 0 mm 1 mps 739 mmHg 50%
    20:00 +5°C° 0 mm 1 mps 739 mmHg 53%
    21:00 +4°C° 0 mm 1 mps 739 mmHg 55%
    22:00 +4°C° 0 mm 1 mps 739 mmHg 56%
    23:00 +3°C° 0 mm 1 mps 740 mmHg 58%

    24 April, Tuesday

    Time Temperature Precipitation Wind Pressure Humidity
    00:00 +2°C° 0 mm 2 mps 740 mmHg 60%
    01:00 +1°C° 0 mm 2 mps 740 mmHg 62%
    02:00 +1°C° 0 mm 2 mps 740 mmHg 65%
    03:00 +1°C° 0 mm 2 mps 740 mmHg 66%
    04:00 +1°C° 0 mm 2 mps 739 mmHg 67%
    05:00 +1°C° 0 mm 2 mps 739 mmHg 68%
    06:00 +2°C° 0 mm 3 mps 739 mmHg 63%
    07:00 +3°C° 0 mm 3 mps 739 mmHg 58%
    08:00 +5°C° 0 mm 3 mps 739 mmHg 53%
    09:00 +6°C° 0 mm 4 mps 739 mmHg 51%
    10:00 +7°C° 0 mm 4 mps 739 mmHg 49%
    11:00 +8°C° 0 mm 4 mps 738 mmHg 47%
    12:00 +10°C° 0 mm 4 mps 738 mmHg 48%
    13:00 +9°C° 0 mm 5 mps 737 mmHg 49%
    14:00 +10°C° 0 mm 5 mps 737 mmHg 50%
    15:00 +10°C° 0.1 mm 5 mps 736 mmHg 53%
    16:00 +9°C° 0.1 mm 5 mps 736 mmHg 56%
    17:00 +9°C° 0.1 mm 5 mps 735 mmHg 59%
    18:00 +8°C° 0.5 mm 6 mps 734 mmHg 62%
    19:00 +7°C° 0.5 mm 6 mps 734 mmHg 65%
    20:00 +6°C° 0.5 mm 7 mps 733 mmHg 69%
    21:00 +5°C° 1.3 mm 7 mps 733 mmHg 74%
    22:00 +5°C° 1.3 mm 7 mps 732 mmHg 79%
    23:00 +4°C° 1.3 mm 7 mps 731 mmHg 84%
    Show more